Total_Precipitation_Accumulation
0.85 0.86 0.76 0.73 0.72 0.70 0.67 0.70 0.78 0.86 0.96 1.01 1.07 1.12 1.16 1.25 1.31 1.42 1.58 1.71 1.74 1.76 1.66 1.70 1.81 1.87 2.04 2.07 2.03 1.99 1.98 1.90 1.75 1.65 1.41 1.19 1.19 1.28 1.34 1.26 1.29 1.30 1.14
0.92 0.84 0.76 0.75 0.78 0.83 0.80 0.71 0.72 0.77 0.79 0.91 1.04 1.04 1.05 1.11 1.19 1.31 1.41 1.46 1.56 1.53 1.45 1.47 1.58 1.64 1.78 1.90 2.01 1.92 1.92 1.88 1.86 1.80 1.58 1.36 1.27 1.31 1.36 1.32 1.23 1.23 1.22
0.93 0.90 0.80 0.69 0.72 0.77 0.78 0.69 0.66 0.70 0.74 0.88 1.02 1.14 1.07 0.98 1.08 1.18 1.23 1.26 1.27 1.23 1.22 1.26 1.32 1.39 1.52 1.63 1.74 1.83 1.84 1.78 1.87 1.86 1.65 1.41 1.29 1.28 1.31 1.30 1.27 1.33 1.23
0.96 0.90 0.86 0.79 0.81 0.75 0.65 0.63 0.64 0.63 0.61 0.68 0.83 0.94 0.99 0.95 0.92 0.94 0.98 1.14 1.13 1.05 0.98 0.98 1.00 1.04 1.16 1.30 1.40 1.56 1.71 1.84 1.92 1.94 1.78 1.50 1.33 1.30 1.34 1.40 1.41 1.35 1.36
1.01 0.97 0.90 0.83 0.74 0.66 0.60 0.52 0.53 0.49 0.49 0.55 0.71 0.89 0.96 0.95 0.98 0.98 0.91 0.95 1.01 1.02 0.96 0.88 0.81 0.81 0.91 1.01 1.10 1.36 1.56 1.71 1.86 1.92 1.84 1.66 1.49 1.40 1.35 1.35 1.45 1.55 1.55
0.81 0.84 0.86 0.82 0.65 0.58 0.51 0.44 0.42 0.42 0.43 0.46 0.54 0.70 0.86 0.85 1.00 1.06 0.99 0.91 0.91 0.91 0.91 0.91 0.90 0.86 0.75 0.71 0.79 0.95 1.19 1.39 1.58 1.69 1.72 1.60 1.44 1.41 1.45 1.46 1.44 1.52 1.58
0.63 0.66 0.69 0.66 0.53 0.47 0.37 0.33 0.36 0.37 0.40 0.42 0.48 0.60 0.74 0.89 0.92 0.83 0.92 0.93 0.90 0.90 0.88 0.88 0.91 0.91 0.95 0.84 0.78 0.77 0.81 0.98 1.23 1.44 1.46 1.42 1.49 1.43 1.40 1.36 1.33 1.34 1.35
0.48 0.51 0.50 0.50 0.46 0.38 0.31 0.30 0.32 0.35 0.39 0.40 0.44 0.50 0.58 0.76 0.81 0.72 0.90 0.94 0.95 0.94 0.93 0.95 0.99 1.02 0.99 1.09 1.06 0.97 0.90 0.90 0.99 0.95 1.05 1.32 1.43 1.45 1.45 1.47 1.50 1.42 1.36
0.33 0.39 0.43 0.42 0.39 0.34 0.29 0.35 0.41 0.41 0.41 0.40 0.40 0.42 0.45 0.53 0.63 0.60 0.74 0.88 0.99 0.98 0.88 0.90 0.95 0.99 1.18 1.22 1.13 1.11 1.04 0.99 1.12 1.13 1.14 1.20 1.27 1.29 1.31 1.40 1.47 1.42 1.36
0.21 0.26 0.32 0.36 0.38 0.40 0.48 0.56 0.57 0.53 0.48 0.43 0.39 0.38 0.41 0.43 0.56 0.45 0.57 0.74 0.91 1.01 0.94 0.91 1.06 1.04 1.05 1.00 0.97 1.16 1.14 1.04 0.95 0.91 0.92 0.97 0.99 1.05 1.13 1.17 1.32 1.34 1.28
0.06 0.11 0.21 0.34 0.40 0.48 0.58 0.60 0.60 0.54 0.46 0.41 0.38 0.36 0.37 0.46 0.60 0.55 0.61 0.71 0.83 0.92 0.95 0.97 0.95 1.03 0.86 0.82 0.87 1.02 1.16 1.10 1.06 1.08 1.02 0.96 0.93 0.94 0.90 0.97 1.11 1.21 1.23
0.05 0.09 0.15 0.23 0.32 0.46 0.54 0.52 0.52 0.51 0.47 0.43 0.44 0.41 0.43 0.53 0.61 0.61 0.61 0.66 0.74 0.81 0.84 0.76 0.75 0.83 0.69 0.64 0.63 0.76 0.94 0.97 0.98 1.05 1.03 0.96 0.91 0.87 0.85 0.85 0.93 1.02 1.05
0.04 0.05 0.08 0.13 0.24 0.39 0.42 0.41 0.44 0.46 0.45 0.44 0.42 0.40 0.40 0.47 0.57 0.68 0.58 0.51 0.50 0.58 0.64 0.64 0.57 0.54 0.53 0.49 0.53 0.63 0.69 0.83 0.97 1.01 0.92 0.85 0.85 0.88 0.89 0.87 0.83 0.86 0.89
0.04 0.03 0.03 0.05 0.07 0.12 0.17 0.21 0.27 0.33 0.34 0.33 0.35 0.39 0.42 0.43 0.43 0.49 0.52 0.48 0.43 0.43 0.43 0.37 0.36 0.39 0.45 0.47 0.48 0.50 0.56 0.77 0.96 0.95 0.87 0.81 0.83 0.87 0.94 0.96 0.93 0.87 0.87
0.05 0.04 0.03 0.05 0.06 0.07 0.08 0.11 0.14 0.17 0.21 0.26 0.31 0.35 0.35 0.39 0.39 0.43 0.45 0.45 0.50 0.54 0.56 0.47 0.41 0.39 0.41 0.45 0.48 0.53 0.65 0.76 0.86 0.82 0.82 0.79 0.80 0.87 0.92 0.96 1.03 1.00 0.93
0.07 0.05 0.03 0.03 0.04 0.04 0.05 0.06 0.07 0.09 0.11 0.13 0.16 0.19 0.19 0.26 0.33 0.36 0.38 0.40 0.43 0.50 0.54 0.55 0.55 0.56 0.57 0.56 0.55 0.52 0.53 0.61 0.69 0.76 0.77 0.78 0.77 0.78 0.78 0.83 0.91 0.96 0.95
0.06 0.06 0.04 0.03 0.03 0.04 0.05 0.07 0.07 0.05 0.04 0.04 0.06 0.10 0.12 0.13 0.16 0.22 0.29 0.35 0.37 0.41 0.46 0.48 0.49 0.51 0.52 0.51 0.48 0.47 0.44 0.45 0.52 0.62 0.73 0.80 0.82 0.82 0.81 0.77 0.76 0.79 0.78
0.05 0.06 0.06 0.08 0.09 0.06 0.06 0.10 0.13 0.15 0.11 0.05 0.03 0.05 0.06 0.07 0.07 0.08 0.11 0.17 0.20 0.23 0.30 0.35 0.36 0.36 0.37 0.39 0.37 0.35 0.35 0.38 0.41 0.44 0.54 0.68 0.83 0.94 0.95 0.92 0.86 0.83 0.83
0.04 0.05 0.07 0.11 0.10 0.10 0.13 0.15 0.14 0.14 0.13 0.09 0.05 0.03 0.04 0.04 0.04 0.05 0.06 0.08 0.10 0.11 0.15 0.18 0.19 0.21 0.25 0.26 0.27 0.28 0.30 0.33 0.37 0.40 0.43 0.48 0.60 0.76 0.87 0.93 0.98 1.05 1.02
0.04 0.04 0.05 0.07 0.08 0.09 0.10 0.12 0.11 0.10 0.09 0.07 0.06 0.06 0.06 0.07 0.06 0.06 0.06 0.07 0.09 0.11 0.12 0.14 0.15 0.15 0.19 0.22 0.23 0.25 0.26 0.29 0.32 0.36 0.39 0.44 0.51 0.60 0.69 0.79 0.84 0.90 0.96
0.03 0.04 0.04 0.05 0.05 0.05 0.05 0.06 0.07 0.07 0.06 0.05 0.04 0.04 0.06 0.10 0.11 0.10 0.10 0.10 0.11 0.12 0.12 0.13 0.15 0.17 0.19 0.23 0.31 0.35 0.34 0.32 0.35 0.40 0.44 0.47 0.51 0.55 0.60 0.69 0.75 0.80 0.85
0.04 0.04 0.04 0.05 0.07 0.07 0.05 0.05 0.06 0.07 0.07 0.06 0.06 0.06 0.08 0.11 0.13 0.13 0.12 0.11 0.12 0.12 0.13 0.15 0.16 0.18 0.20 0.24 0.32 0.42 0.47 0.44 0.41 0.43 0.49 0.53 0.55 0.58 0.62 0.68 0.74 0.80 0.83
0.04 0.05 0.06 0.06 0.07 0.07 0.07 0.07 0.08 0.08 0.08 0.09 0.10 0.11 0.11 0.12 0.12 0.12 0.13 0.14 0.15 0.16 0.17 0.18 0.18 0.19 0.21 0.25 0.30 0.35 0.39 0.44 0.49 0.53 0.57 0.59 0.61 0.64 0.67 0.69 0.71 0.78 0.81
0.05 0.06 0.07 0.09 0.09 0.09 0.10 0.10 0.09 0.09 0.10 0.11 0.12 0.13 0.13 0.15 0.14 0.14 0.14 0.16 0.18 0.18 0.20 0.21 0.22 0.21 0.23 0.26 0.29 0.32 0.35 0.39 0.41 0.44 0.51 0.59 0.62 0.64 0.69 0.70 0.70 0.72 0.78
0.06 0.06 0.07 0.09 0.10 0.12 0.13 0.14 0.14 0.13 0.13 0.13 0.14 0.14 0.15 0.16 0.17 0.16 0.16 0.17 0.19 0.21 0.22 0.22 0.22 0.24 0.28 0.29 0.30 0.34 0.45 0.47 0.44 0.44 0.47 0.54 0.58 0.62 0.68 0.75 0.81 0.84 0.84
0.09 0.09 0.09 0.10 0.12 0.13 0.15 0.18 0.19 0.18 0.17 0.16 0.16 0.18 0.19 0.19 0.19 0.19 0.19 0.20 0.21 0.23 0.24 0.27 0.28 0.29 0.31 0.33 0.33 0.38 0.44 0.43 0.44 0.49 0.50 0.52 0.56 0.60 0.67 0.77 0.82 0.87 0.92